Regional Weather Roundup
Issued by NWS

Home | Current Version | Previous Version | Text Only | Print | Product List | Glossary Off
Versions: 1 2 3 4 5 6 7 8 9 10 11 12 13 14 15 16 17 18 19 20 21 22 23 24 25 26 27 28 29 30 31 32 33 34 35 36 37 38 39 40 41 42 43 44 45 46 47 48 49

000
ASUS45 KCYS 201410
RWRWY

WYOMING REGIONAL WEATHER ROUNDUP
NATIONAL WEATHER SERVICE CHEYENNE WY
800 AM MDT MON OCT 20 2014

NOTE:  "FAIR" INDICATES FEW OR NO CLOUDS BELOW 12,000 FEET
WITH NO SIGNIFICANT WEATHER AND/OR OBSTRUCTIONS TO VISIBILITY.

WYZ001-201500-
YELLOWSTONE NATIONAL PARK

CITY           SKY/WX    TMP DP  RH WIND       PRES   REMARKS
LK YELLOWSTONE   N/A     24  21  88 NW3       30.23S
W YELLOWSTONE  NOT AVBL

$$
WYZ002>013-054>058-071-098>099-201500-
NORTHERN WYOMING

CITY           SKY/WX    TMP DP  RH WIND       PRES   REMARKS
JACKSON        CLEAR     27  23  86 VRB7      30.20S WCI  19
CODY           CLEAR    N/A N/A N/A S13       30.03R
GREYBULL       PTCLDY    34  26  72 S3        30.02S
WORLAND        PTCLDY    34  27  75 SE3       30.02S
SHERIDAN       PTCLDY    34  27  75 SW3       29.97S
BUFFALO        CLEAR     52  19  27 W5        30.01S
GILLETTE       PTCLDY    46  35  65 S17       30.01S
HULETT         FAIR      50  36  57 CALM      30.03
NEWCASTLE      FAIR      43  34  70 NW3       30.07

$$
WYZ014>020-022>026-101>103-201500-
CENTRAL WYOMING

CITY           SKY/WX    TMP DP  RH WIND       PRES   REMARKS
BIG PINEY      PTCLDY    24  20  84 CALM      30.21S
PINEDALE       MOSUNNY   27  23  86 W7        30.21S WCI  19
DUBOIS         FAIR      37  21  52 NW13      30.16S WCI  29
LANDER         CLEAR     41  27  57 CALM      30.09S
RIVERTON       CLEAR     36  28  73 N9        30.10S WCI  29
CASPER         CLEAR     38  30  73 SE7       30.10R WCI  33
DOUGLAS        CLEAR     32  29  88 CALM      30.11S

$$
WYZ021-027>030-104>119-201500-
SOUTHERN WYOMING

CITY           SKY/WX    TMP DP  RH WIND       PRES   REMARKS
EVANSTON       NOT AVBL
KEMMERER       MOSUNNY   34  28  80 N6        30.21R WCI  29
FORT BRIDGER   FAIR      42  30  62 CALM      30.22S
ROCK SPRINGS   PTCLDY    38  28  67 CALM      30.19R
DIXON          FAIR      32  28  85 CALM      30.24R
RAWLINS        PTCLDY    33  25  72 CALM      30.20S
SARATOGA       FAIR      46  30  53 SE16G22   30.22S
LARAMIE        CLEAR     35  29  78 S8        30.22R WCI  29
CHEYENNE       PTCLDY    40  33  76 W7        30.18R
TORRINGTON     CLEAR     36  32  85 E10       30.10R WCI  28
PINE BLUFFS    FAIR      36  32  87 S5        30.16R WCI  32

$$


USA.gov is the U.S. government's official web portal to all federal, state and local government web resources and services.